Simultaneous Nadir Overpasses (SNOs) Predictions

Prediction of SNOs between AQUA and METOP-A Satellite Orbit:

Table of predicted SNOs for the next 14.0 days since TLE Epoch: 11/25/2016
Index Date (AQUA) Time (AQUA) Lat,Lon (AQUA) SZA (AQUA ) Date (METOP-A) Time (METOP-A) Lat,Lon (METOP-A) SZA (METOP-A ) Distance(km) Time Diff (sec)
1 11/27/2016 00:09:30 73.41, 172.59 94.49 11/27/2016 00:08:21 73.32, 170.85 94.43 56.34 69
2 11/27/2016 00:59:03 -73.84, -20.69 85.07 11/27/2016 00:58:52 -73.83, -20.66 85.08 1.39 11
3 11/27/2016 01:48:31 73.88, 146.86 94.98 11/27/2016 01:49:30 73.90, 146.85 95.00 2.22 59
4 11/29/2016 19:43:48 73.59,-121.35 95.16 11/29/2016 19:42:37 73.55,-122.23 95.13 27.92 71
5 11/29/2016 20:33:19 -73.85, 45.72 84.57 11/29/2016 20:33:13 -73.86, 45.83 84.57 3.48 6
6 11/29/2016 21:22:47 73.90,-146.75 95.49 11/29/2016 21:23:52 73.87,-146.80 95.46 3.21 65
7 12/02/2016 15:18:07 73.78, -55.32 95.79 12/02/2016 15:16:54 73.77, -55.29 95.78 1.58 73
8 12/02/2016 16:07:34 -73.83, 112.21 84.16 12/02/2016 16:07:35 -73.84, 112.19 84.16 0.87 1
9 12/02/2016 16:57:02 73.88, -80.27 95.90 12/02/2016 16:58:13 73.90, -80.33 95.91 2.61 71
10 12/05/2016 10:52:22 73.77, 11.13 96.16 12/05/2016 10:51:15 73.79, 11.17 96.18 2.23 67
11 12/05/2016 11:41:50 -73.87, 178.56 83.74 12/05/2016 11:41:56 -73.86, 178.66 83.76 3.40 6
12 12/05/2016 12:31:20 74.03, -14.16 96.43 12/05/2016 12:32:32 74.02, -13.62 96.41 16.59 72
13 12/08/2016 06:26:36 73.78, 77.56 96.48 12/08/2016 06:25:36 73.76, 77.51 96.47 2.77 60
14 12/08/2016 07:16:03 -73.82,-114.89 83.48 12/08/2016 07:16:17 -73.83,-115.00 83.47 3.44 14




NCC Satellite Simultaneous Nadir Overpasses (SNOs) Prediction Service
